Regional Weather Roundup
Issued by NWS Cleveland, OH

Home | Current Version | Previous Version | Graphics & Text | Print | Product List | Glossary On
Versions: 1 2 3 4 5 6 7 8 9 10 11 12 13 14 15 16 17 18 19 20 21 22 23 24 25 26 27 28 29 30 31 32 33 34 35 36 37 38 39 40 41 42 43 44 45 46 47 48 49 50
000
ASUS41 KCLE 192300
RWRCLE
OHIO REGIONAL WEATHER ROUNDUP
NATIONAL WEATHER SERVICE WILMINGTON, OH
600 PM EST FRI JAN 19 2018

NOTE: "FAIR" INDICATES FEW OR NO CLOUDS BELOW 12,000 FEET WITH NO
SIGNIFICANT WEATHER AND/OR OBSTRUCTIONS TO VISIBILITY.

OHZ001>008-015>018-024>027-034-035-043-044-200000-
   NORTHWEST OHIO

CITY           SKY/WX    TMP DP  RH WIND       PRES   REMARKS
DEFIANCE       FAIR      32  22  66 S13       29.88F WCI  22
FINDLAY        FAIR      34  21  59 S17       29.91S WCI  23
TOLEDO EXPRESS FAIR      34  24  67 SW13G23   29.87F WCI  25
TOLEDO EXEC    FAIR      34  23  64 SW15      29.89F WCI  24
LIMA           FAIR      34  22  61 S17G29    29.92F WCI  23
$$

OHZ009>014-019>023-028>033-038-089-200000-
   NORTHEAST OHIO

CITY           SKY/WX    TMP DP  RH WIND       PRES   REMARKS
CLE-HOPKINS    FAIR      37  19  48 S20G26    29.94S
CLE-LAKEFRONT  FAIR      37  19  48 S16G26    29.91S
CUY CO. ARPT   MOCLDY    39  19  45 SW16G26   29.92S
LORAIN-ELYRIA  FAIR      37  16  42 SW23      29.92R
ASHTABULA      FAIR      34  17  50 SW14      29.92S WCI  25
AKRON-CANTON   FAIR      34  18  52 SW16      29.96F WCI  24
WOOSTER        NOT AVBL
MANSFIELD      FAIR      33  19  56 S22       29.94S WCI  21
YOUNGSTOWN     FAIR      35  18  49 SW12      29.95S WCI  27
$$

OHZ042-051>053-060>062-070>072-077>081-200000-
  SOUTHWEST OHIO

CITY           SKY/WX    TMP DP  RH WIND       PRES   REMARKS
CINC-COVINGTON FAIR      36  21  54 S12       30.04F
CINC-LUNKEN    FAIR      39  22  50 SW12      30.08S
HAMILTON       FAIR      38  20  48 S6        30.06S
DAYTON         NOT AVBL
WRIGHT-PAT AFB FAIR      36  10  34 S13       30.01S
DAYTON GENERAL FAIR      37  19  48 S12       30.01F
WILMINGTON     FAIR      32  20  61 S12       30.03S WCI  23
$$

OHZ036-037-039>041-045>050-054>059-063>069-073>076-082>088-200000-
  CENTRAL AND SOUTHEAST OHIO

CITY           SKY/WX    TMP DP  RH WIND       PRES   REMARKS
COLUMBUS       FAIR      36  19  50 S9        30.03F
OSU AIRPORT    FAIR      34  20  56 S10       30.01F WCI  26
BOLTON FIELD   CLEAR     34  19  55 S8        30.03F WCI  27
RICKENBACK AFB NOT AVBL
NEWARK         FAIR      35  18  49 S8        30.02F WCI  29
MARION         FAIR      31  19  61 S17       29.97F WCI  19
LANCASTER      FAIR      36  19  50 S9        30.04F
ZANESVILLE     FAIR      36  18  48 S12       30.04F
NEW PHILLY     FAIR      38  17  42 S6        30.02S
$$




USA.gov is the U.S. government's official web portal to all federal, state and local government web resources and services.